This is the latest recevied weather packets stored in our database for station/object YT1XN-8. If no packets are shown the sender has not sent any weather packets the latest 10 day(s).
| Time | Temp. | Humidity | Pressure | Rain* | Wind** | Luminosity | Snow |
|---|---|---|---|---|---|---|---|
| 1777796922 | 16.67° C | 52% | 1022.5 hPa | 0 mm | - | - | - |
| 1777796444 | 16.11° C | 53% | 1022.5 hPa | 0 mm | - | - | - |
| 1777796262 | 16.11° C | 53% | 1022.5 hPa | 0 mm | - | - | - |
| 1777795845 | 16.11° C | 54% | 1022.5 hPa | 0 mm | - | - | - |
| 1777795602 | 16.11° C | 53% | 1022.5 hPa | 0 mm | - | - | - |
| 1777795243 | 15.56° C | 56% | 1022.5 hPa | 0 mm | - | - | - |
| 1777794942 | 15.56° C | 55% | 1022.5 hPa | 0 mm | - | - | - |
| 1777794643 | 15.56° C | 53% | 1022.5 hPa | 0 mm | - | - | - |
| 1777794282 | 15.56° C | 55% | 1022.5 hPa | 0 mm | - | - | - |
| 1777794043 | 15° C | 56% | 1022.6 hPa | 0 mm | - | - | - |
| 1777793622 | 15° C | 56% | 1022.5 hPa | 0 mm | - | - | - |
| 1777793443 | 15° C | 57% | 1022.5 hPa | 0 mm | - | - | - |
| 1777792962 | 15° C | 56% | 1022.4 hPa | 0 mm | - | - | - |
| 1777792843 | 15° C | 56% | 1022.5 hPa | 0 mm | - | - | - |
| 1777792302 | 13.89° C | 59% | 1022.5 hPa | 0 mm | - | - | - |
| 1777792243 | 13.89° C | 60% | 1022.4 hPa | 0 mm | - | - | - |
| 1777791642 | 13.33° C | 61% | 1022.5 hPa | 0 mm | - | - | - |
| 1777791043 | 13.33° C | 60% | 1022.3 hPa | 0 mm | - | - | - |
| 1777790982 | 13.33° C | 61% | 1022.3 hPa | 0 mm | - | - | - |
| 1777790443 | 13.33° C | 62% | 1022.2 hPa | 0 mm | - | - | - |
| 1777790321 | 13.33° C | 65% | 1022.2 hPa | 0 mm | - | - | - |
| 1777789843 | 12.78° C | 66% | 1022.1 hPa | 0 mm | - | - | - |
| 1777789661 | 12.78° C | 66% | 1022.1 hPa | 0 mm | - | - | - |
| 1777789243 | 12.78° C | 66% | 1022.1 hPa | 0 mm | - | - | - |
| 1777789001 | 12.22° C | 66% | 1022.1 hPa | 0 mm | - | - | - |
* Rain latest hour (hover to see other rain measurements)
** Current wind speed in m/s (hover to see current wind gust speed)